Flag for India Weather past 2 weeks in Yavatmal, Maharashtra, India

Now
54 °F

Haze.


Feels Like: 54 °F
Forecast: 52 / 79 °F
Wind: No wind

Location: Nagpur Sonegaon

Current Time: Dec 23, 2014 at 1:45:04 AM

Latest Report: Dec 23, 2014 at 12:40 AM


Visibility: 2 mi

Pressure: 29.98 "Hg

Humidity: 63%

Dew point: 41 °F

Location of YavatmalLocation

Historic Weather in Yavatmal — Graph

°F

Yavatmal temperature yesterday

Maximum temperature yesterday: 81 °F (at 2:40 PM)
Minimum temperature yesterday: 46 °F (at 6:40 AM)
Average temperature yesterday: 64 °F

Past Weeks' High & Low Weather Summary

 TemperatureHumidityPressure
High88 °F (Dec 9, 2:10 PM)94% (Dec 15, 1:10 AM)30.21 "Hg (Dec 15, 1:10 AM)
Low46 °F (Dec 18, 6:40 AM)30% (Dec 19, 3:10 PM)29.92 "Hg (Dec 8, 2:10 PM)
Average68 °F64%30.03 "Hg
* Reported Dec 8 12:10 AM — Dec 23 12:10 AM, Yavatmal, Weather by CustomWeather, © 2014

Note: Actual official high and low records may vary slightly from our data, if they occured in-between our weather recording intervals... More about our weather records

Advertising

Yavatmal weather history for previous 24 hours

 ConditionsComfort  
Time TempWeatherWind HumidityBarometerVisibility
12:10 AM
Dec 23
55 °FHaze.No wind63%29.98 "Hg1 mi
10:40 PM
Dec 22
55 °FHaze.No wind59%30.01 "Hg1 mi
8:40 PM59 °FHaze.No wind55%30.01 "Hg2 mi
7:40 PM61 °FHaze.No wind55%29.98 "Hg2 mi
6:40 PM68 °FHaze.No wind60%29.95 "Hg2 mi
5:40 PM72 °FHaze.No wind65%29.92 "Hg2 mi
4:40 PM79 °FHaze.3 mph61%29.92 "Hg2 mi
3:10 PM81 °FHaze.5 mph62%29.92 "Hg2 mi
2:40 PM81 °FHaze.5 mph62%29.92 "Hg2 mi
2:10 PM79 °FHaze.5 mph65%29.95 "Hg2 mi
1:40 PM79 °FHaze.5 mph65%29.95 "Hg2 mi
12:40 PM77 °FHaze.6 mph32%29.98 "Hg2 mi
11:10 AM73 °FHaze.7 mph61%30.04 "Hg2 mi
10:10 AM68 °FHaze.6 mph60%30.07 "Hg2 mi
9:40 AM66 °FHaze.5 mph60%30.07 "Hg2 mi
6:40 AM46 °FHaze.No wind71%30.01 "Hg1 mi
6:10 AM48 °FHaze.No wind71%29.98 "Hg2 mi
5:10 AM50 °FHaze.No wind67%29.98 "Hg2 mi
2:10 AM54 °FHaze.No wind67%29.98 "Hg2 mi
1:40 AM52 °FHaze.No wind67%29.98 "Hg2 mi
1:10 AM54 °FHaze.No wind63%29.98 "Hg2 mi
Weather by CustomWeather, © 2014

See weather overviewHow to use our weather pages